[[{"header":{"parameterUnit":"m.s-1","parameterCategory":1,"la1":30.2991,"la2":30.254,"lo1":-89.0895,"lo2":-89.0444,"dy":0.0017,"dx":0.0017,"nx":28,"ny":28,"refTime":"2024-06-27T09:00:00:Z","depth":0,"parameterNumber":2,"parameterNumberName":"U-component_of_WINDS"},"data":[0,0,0,0,0,0,0,0,0,0,0,0,0,0,0,0,0,0,0,0,0,0,0,0,0,0,0,0,0,0,0,0,0,0,0,0,0,0,0,0,0,0,0,0,0,0,0,0,0,0,0,0,0,0,0,0,0,0,7.0203,7.0205,0,7.0427,7.043,7.0432,7.0377,7.0372,7.0368,7.0364,7.0598,7.0608,7.0618,0,0,0,0,0,0,0,0,0,0,0,0,0,6.9727,6.9736,7.0202,7.0205,7.0208,7.0427,7.043,7.0433,7.0378,7.0372,7.0367,7.0362,7.0595,7.0607,7.0619,0,0,0,0,0,0,0,0,0,0,0,0,0,6.9941,6.9739,7.0202,7.0207,7.0209,7.0426,7.043,7.0434,7.0379,7.0372,7.0366,7.0359,7.059,7.0605,7.0621,7.0848,0,0,7.0668,7.0675,0,0,0,0,0,0,0,0,6.9929,6.9958,7.0203,7.0207,7.021,7.0367,7.0348,7.0573,7.038,7.0315,7.0364,7.0356,7.0527,7.0547,7.0604,7.0859,7.0869,7.0669,7.0679,7.0685,7.069,0,0,0,0,0,0,0,6.9914,6.9948,7.0291,7.0207,7.0211,7.0198,7.0221,7.039,7.0455,7.032,7.0316,7.0343,7.0527,7.0589,7.0609,7.0872,7.0669,7.0683,7.0692,7.0698,7.132,7.1327,0,0,0,0,0,0,6.9896,6.9936,7.0284,7.0298,7.005,7.0212,7.0238,7.0323,7.0453,7.0466,7.0349,7.034,7.0566,7.0591,7.0617,7.0888,7.0685,7.07,7.0709,7.1313,7.1322,7.133,0,0,0,0,0,0,6.9886,6.9928,7.0275,7.0116,7.016,7.0227,7.0324,7.0331,7.0393,7.0475,7.0486,7.04,7.0562,7.0595,7.0789,7.0895,7.0707,7.0721,7.1305,7.1316,7.1326,7.1433,0,0,0,0,0,0,6.9873,6.9924,7.0011,7.0119,7.0168,7.0444,7.033,7.0341,7.0419,7.041,7.0525,7.0538,7.0559,7.0767,7.0805,7.0913,7.0733,7.1295,7.131,7.1322,7.1421,7.1447,7.1469,0,0,0,0,0,6.9856,7.0034,7.0016,7.0058,7.0278,7.045,7.0479,7.0498,7.0428,7.0515,7.0567,7.0535,7.0878,7.0787,7.083,7.0944,7.1289,7.1306,7.1321,7.141,7.1441,7.1468,0,0,0,0,0,0,6.994,7.0049,7.0029,7.0248,7.034,7.0441,7.0552,7.0531,7.0646,7.0633,7.0652,7.0679,7.0877,7.093,7.0827,7.1168,7.1073,7.1099,7.1126,7.1157,7.118,7.1162,7.0746,0,0,0,0,0,6.9983,7.0113,7.0202,7.0386,7.0433,7.0485,7.0561,7.0567,7.0663,7.0702,7.0769,7.0865,7.0994,7.1079,7.1202,7.1428,7.1451,7.1528,7.1552,7.1571,7.1593,7.1713,7.1747,7.1383,7.1383,7.1383,0,0,7.0076,7.0151,7.0233,7.0405,7.0477,7.061,7.0518,7.0665,7.0764,7.0725,7.0911,7.0964,7.1072,7.1282,7.1378,7.1333,7.1698,7.1592,7.1607,7.1618,7.1733,7.1767,7.1798,7.1394,7.1392,7.1391,0,0,7.0311,7.0382,7.0542,7.0615,7.0724,7.0757,7.0795,7.0898,7.093,7.1117,7.109,7.1209,7.1432,7.1508,7.1577,7.1838,7.1811,7.1878,7.2003,7.212,7.2148,7.2174,7.2264,7.2296,7.1899,7.19,7.19,0,7.0412,7.0612,7.0627,7.0774,7.085,7.0819,7.098,7.1051,7.1196,7.1248,7.1195,7.1471,7.1542,7.1768,7.1831,7.1889,7.1932,7.1864,7.2143,7.2169,7.2193,7.2279,7.2313,7.1907,7.1906,7.1905,7.1905,0,7.0729,7.0868,7.0983,7.1121,7.121,7.1364,7.1401,7.149,7.1487,7.1525,7.1715,7.1798,7.1936,7.1991,7.1992,7.2217,7.2184,7.2138,7.2042,7.2234,7.2315,7.2349,7.1917,7.1915,7.1912,7.1911,0,0,7.1025,7.1165,7.1208,7.1268,7.1385,7.1492,7.1644,7.1777,7.1851,7.1952,7.2078,7.2265,7.2221,7.2298,7.2308,7.2411,7.2608,7.235,7.2353,7.2393,7.2857,7.2889,7.2927,7.2591,7.2597,7.2602,7.2846,0,7.1268,7.1533,7.1549,7.179,7.1916,7.1887,7.2019,7.2105,7.2144,7.2257,7.2301,7.2432,7.2365,7.2411,7.2512,7.2562,7.2701,7.2545,7.2707,7.2713,7.2678,7.297,7.3006,7.3233,7.2878,7.2884,7.2888,0,7.1588,7.1694,7.1946,7.2041,7.2095,7.2213,7.2334,7.2444,7.2539,7.256,7.2645,7.2639,7.2793,7.2693,7.2905,7.2799,7.2866,7.2901,7.291,7.2924,7.281,7.299,7.3306,7.3338,7.2939,7.2935,7.2931,0,7.1774,7.1982,7.2158,7.2211,7.2327,7.241,7.2463,7.2552,7.2629,7.2736,7.2786,7.291,7.2978,7.3074,7.31,7.3025,7.3311,7.3214,7.3331,7.3331,7.3392,7.3387,7.372,7.344,7.3439,7.3438,7.3438,0,7.2043,7.2198,7.2242,7.2351,7.2522,7.2539,7.2709,7.2756,7.2835,7.2952,7.2936,7.3046,7.3075,7.3191,7.3213,7.3383,7.3415,7.3435,7.3439,7.3436,7.3433,7.3479,7.3462,7.3447,7.3445,7.3444,7.3442,0,7.228,7.2317,7.2506,7.2599,7.2626,7.2748,7.2828,7.2932,7.2967,7.3115,7.315,7.3207,7.3341,7.3378,7.354,7.3555,7.3754,7.3745,7.3721,7.372,7.3834,7.3822,7.4207,7.4257,7.3946,7.3949,7.3951,0,7.2448,7.2566,7.267,7.2746,7.2801,7.2924,7.3002,7.3023,7.3105,7.3221,7.331,7.3442,7.3548,7.3765,7.382,7.3943,7.3935,7.4061,7.3954,7.3945,7.3933,7.3925,7.3935,7.4081,7.4084,7.4087,7.4089,0,7.2742,7.2753,7.2865,7.2983,7.3076,7.317,7.3261,7.3324,7.3358,7.3451,7.3586,7.3668,7.3831,7.3962,7.4085,7.414,7.412,7.4123,7.4156,7.4152,7.4132,7.4141,7.3774,7.4114,7.4111,7.4109,7.4108,7.4107,7.2948,7.3049,7.3137,7.3262,7.3331,7.3415,7.3516,7.3562,7.3675,7.3808,7.3814,7.3961,7.4051,7.4214,7.4275,7.439,7.4352,7.4401,7.4413,7.4424,7.4432,7.4115,7.4413,7.4413,7.4412,7.4411,7.4411,0,7.3237,7.3291,7.3406,7.3531,7.3628,7.36,7.3697,7.3781,7.3909,7.3995,7.4098,7.4253,7.4378,7.4443,7.4567,7.4646,7.464,7.4678,7.4671,7.4683,7.4461,7.4418,7.4681,7.468,7.468,7.468,7.468,7.468,7.3399,7.3568,7.3589,7.3791,7.3845,7.3986,7.4044,7.4121,7.4188,7.436,7.4463,7.4504,7.458,7.4709,7.4823,7.4838,7.4884,7.4926,7.4937,7.4727,7.47,7.4673,7.4633,7.4936,7.4937,7.5149,7.5151,7.5153]},{"header":{"parameterUnit":"m.s-1","parameterCategory":1,"la1":30.2991,"la2":30.254,"lo1":-89.0895,"lo2":-89.0444,"dy":0.0017,"dx":0.0017,"nx":28,"ny":28,"refTime":"2024-06-27T09:00:00:Z","depth":0,"parameterNumber":3,"parameterNumberName":"V-component_of_WINDS"},"data":[0,0,0,0,0,0,0,0,0,0,0,0,0,0,0,0,0,0,0,0,0,0,0,0,0,0,0,0,0,0,0,0,0,0,0,0,0,0,0,0,0,0,0,0,0,0,0,0,0,0,0,0,0,0,0,0,0,0,2.0254,2.0255,0,2.0327,2.0327,2.0328,2.0335,2.0335,2.0334,2.0333,2.0404,2.0407,2.0409,0,0,0,0,0,0,0,0,0,0,0,0,0,2.0117,2.012,2.0254,2.0255,2.0256,2.0326,2.0327,2.0328,2.0335,2.0334,2.0334,2.0333,2.0403,2.0406,2.0409,0,0,0,0,0,0,0,0,0,0,0,0,0,2.0182,2.012,2.0254,2.0268,2.027,2.0326,2.0327,2.0329,2.0336,2.0334,2.0333,2.0332,2.0402,2.0406,2.041,2.0456,0,0,2.0422,2.0423,0,0,0,0,0,0,0,0,2.0178,2.0187,2.0265,2.0267,2.0269,2.0321,2.0305,2.0371,2.0336,2.0311,2.0333,2.0332,2.0377,2.0383,2.0399,2.046,2.0463,2.0422,2.0424,2.0426,2.0427,0,0,0,0,0,0,0,2.0173,2.0184,2.0283,2.0266,2.0269,2.0269,2.0277,2.0318,2.0349,2.0313,2.0313,2.0322,2.0378,2.0395,2.0401,2.0464,2.0422,2.0425,2.0428,2.0429,2.0564,2.0565,0,0,0,0,0,0,2.0167,2.018,2.028,2.0285,2.022,2.0272,2.0281,2.0305,2.0349,2.0354,2.0323,2.0322,2.0389,2.0396,2.0403,2.0459,2.0426,2.043,2.0432,2.0563,2.0564,2.0566,0,0,0,0,0,0,2.0164,2.0176,2.0277,2.0233,2.0245,2.0276,2.0303,2.0307,2.0325,2.0357,2.0362,2.0335,2.0389,2.0398,2.0443,2.0462,2.0432,2.0435,2.0561,2.0563,2.0565,2.0573,0,0,0,0,0,0,2.016,2.0175,2.0194,2.0233,2.0248,2.0317,2.0304,2.031,2.0332,2.0331,2.0369,2.0374,2.0388,2.0437,2.0447,2.0467,2.0438,2.056,2.0562,2.0564,2.0571,2.0575,2.0578,0,0,0,0,0,2.0155,2.0193,2.0195,2.0207,2.0273,2.0318,2.0327,2.0343,2.0333,2.0352,2.0372,2.0373,2.0458,2.0442,2.0453,2.0474,2.0559,2.0562,2.0564,2.0569,2.0574,2.0578,0,0,0,0,0,0,2.0154,2.0198,2.0201,2.0253,2.0282,2.0319,2.0344,2.0348,2.0379,2.0377,2.0395,2.0404,2.0448,2.0465,2.0446,2.052,2.0507,2.0512,2.0507,2.0512,2.0515,2.051,2.0441,0,0,0,0,0,2.016,2.0195,2.0231,2.0273,2.0288,2.0313,2.0334,2.0344,2.0374,2.0386,2.041,2.0438,2.0471,2.0492,2.0525,2.0573,2.0581,2.0593,2.0597,2.0599,2.0603,2.0629,2.0634,2.0575,2.0575,2.0575,0,0,2.0173,2.0201,2.0222,2.0274,2.0297,2.0331,2.0323,2.036,2.0385,2.0391,2.0436,2.0453,2.0486,2.0533,2.0555,2.0549,2.0621,2.0603,2.0605,2.0608,2.0632,2.0638,2.0643,2.0577,2.0576,2.0576,0,0,2.0213,2.0238,2.0276,2.03,2.0336,2.0352,2.0361,2.0398,2.0411,2.0455,2.046,2.0489,2.0546,2.0569,2.0588,2.0635,2.0637,2.0645,2.0663,2.0687,2.0692,2.0696,2.0712,2.0717,2.0649,2.0649,2.0649,0,2.0224,2.0277,2.0294,2.0331,2.0353,2.036,2.0397,2.0419,2.0463,2.0478,2.0471,2.0541,2.0564,2.0615,2.0627,2.0642,2.0652,2.0641,2.069,2.0695,2.0699,2.0714,2.072,2.0649,2.0649,2.0649,2.0649,0,2.0287,2.0324,2.0349,2.0393,2.0418,2.0454,2.0475,2.0498,2.0505,2.0522,2.0566,2.0593,2.0631,2.0643,2.0651,2.0695,2.0691,2.0687,2.0674,2.0705,2.0719,2.0725,2.065,2.065,2.065,2.065,0,0,2.033,2.0382,2.0391,2.041,2.045,2.0478,2.0514,2.0551,2.0569,2.0599,2.0629,2.0676,2.0672,2.0694,2.0703,2.0725,2.0759,2.0718,2.0719,2.0724,2.0808,2.081,2.0817,2.076,2.0761,2.0762,2.0805,0,2.0374,2.044,2.0456,2.0511,2.0544,2.0551,2.0582,2.0609,2.0625,2.0654,2.0671,2.0704,2.0697,2.071,2.0732,2.075,2.0776,2.0747,2.0786,2.0787,2.0778,2.0825,2.0828,2.0867,2.0811,2.0812,2.0812,0,2.0435,2.0467,2.0526,2.056,2.0574,2.0602,2.0637,2.0665,2.0695,2.0704,2.0728,2.0735,2.0771,2.0756,2.0804,2.0785,2.0801,2.0813,2.0814,2.0818,2.0802,2.0829,2.088,2.0885,2.0822,2.0821,2.082,0,2.0459,2.0516,2.0559,2.0575,2.0616,2.0635,2.0653,2.0682,2.0703,2.0732,2.0746,2.0779,2.0797,2.0821,2.0836,2.0825,2.0883,2.087,2.0891,2.0891,2.0903,2.0902,2.0956,2.0915,2.0915,2.0914,2.0914,0,2.0506,2.0542,2.057,2.0596,2.0635,2.0652,2.069,2.0708,2.0733,2.0762,2.0769,2.0795,2.0814,2.0842,2.0854,2.0891,2.0899,2.0907,2.091,2.0906,2.0905,2.0917,2.0915,2.0916,2.0916,2.0915,2.0915,0,2.054,2.0561,2.0607,2.0642,2.0652,2.0679,2.0708,2.0733,2.0749,2.0784,2.0793,2.0818,2.0851,2.0869,2.091,2.0918,2.096,2.0961,2.095,2.0951,2.0971,2.0968,2.1034,2.1043,2.0996,2.0996,2.0997,0,2.0569,2.0596,2.0634,2.0654,2.0673,2.0705,2.0726,2.0743,2.0765,2.08,2.082,2.0854,2.0882,2.0934,2.0955,2.0986,2.0988,2.1009,2.0992,2.0987,2.0987,2.0985,2.0987,2.1011,2.1012,2.1012,2.1012,0,2.0617,2.0626,2.0657,2.0691,2.0717,2.0744,2.0772,2.0787,2.0808,2.0832,2.0866,2.0888,2.093,2.0963,2.0996,2.1012,2.1015,2.1017,2.1024,2.102,2.1012,2.1016,2.0957,2.1016,2.1015,2.1015,2.1015,2.1015,2.0649,2.0673,2.0704,2.0738,2.076,2.0785,2.0809,2.0828,2.0858,2.0894,2.0902,2.0938,2.0965,2.1009,2.1027,2.1054,2.105,2.1059,2.1061,2.1063,2.1064,2.1008,2.106,2.106,2.106,2.106,2.106,0,2.0697,2.0717,2.0748,2.0786,2.0812,2.0814,2.0843,2.0865,2.0897,2.0922,2.095,2.0989,2.102,2.1043,2.1074,2.1092,2.1094,2.11,2.1098,2.1102,2.1066,2.1057,2.1097,2.1097,2.1097,2.1097,2.1097,2.1097,2.0725,2.0766,2.0778,2.0829,2.0848,2.0885,2.0901,2.0923,2.0944,2.0987,2.1014,2.1029,2.1053,2.1086,2.1114,2.112,2.1131,2.1136,2.1142,2.1108,2.1104,2.11,2.1092,2.1139,2.1139,2.1174,2.1175,2.1175]}]]